Date,TemperatureHighF,TemperatureAvgF,TemperatureLowF,DewpointHighF,DewpointAvgF,DewpointLowF,HumidityHigh,HumidityAvg,HumidityLow,PressureMaxIn,PressureMinIn,WindSpeedMaxMPH,WindSpeedAvgMPH,GustSpeedMaxMPH,PrecipitationSumIn
2013-8-1,66,62,56,59,56,54,94,83,72,30.02,29.99,13,5,20,0.00
2013-8-2,62,60,58,60,58,56,95,90,84,30.10,30.01,13,3,17,0.01
2013-8-3,72,65,60,62,59,58,96,84,64,30.08,30.00,8,1,9,0.00
2013-8-4,79,68,58,62,59,56,94,75,53,30.02,29.89,10,1,13,0.00
2013-8-5,84,71,60,62,59,55,93,69,37,29.95,29.88,8,0,9,0.00
2013-8-6,83,70,59,61,57,53,89,65,37,29.96,29.86,8,1,12,0.00
2013-8-7,84,70,59,63,58,55,91,68,39,29.97,29.89,9,1,12,0.00
2013-8-8,80,67,59,62,58,56,92,76,53,30.00,29.89,11,2,12,0.00
2013-8-9,81,70,61,62,58,53,84,66,46,29.91,29.79,13,1,15,0.00
2013-8-10,75,67,60,64,61,58,95,83,65,29.97,29.85,11,2,16,0.01
2013-8-11,73,65,59,60,56,54,88,75,56,30.02,29.94,11,3,15,0.00
2013-8-12,76,66,60,59,57,55,89,73,52,30.03,29.96,11,2,13,0.00
2013-8-13,79,68,60,60,57,55,88,71,45,30.06,29.88,10,1,11,0.00
2013-8-14,78,68,60,63,60,57,91,77,49,29.93,29.87,12,1,16,0.01
2013-8-15,69,67,64,66,64,62,95,91,83,29.96,29.89,8,1,9,0.01
2013-8-16,83,70,62,65,61,50,97,77,32,29.96,29.89,7,1,12,0.00
2013-8-17,76,69,64,62,59,56,84,72,60,30.04,29.96,13,3,18,0.00
2013-8-18,76,67,61,62,58,54,88,73,60,30.10,30.04,13,3,18,0.00
2013-8-19,76,67,62,61,57,53,82,70,56,30.08,30.02,12,2,16,0.00
2013-8-20,74,66,60,58,54,50,82,66,49,30.13,30.04,11,3,16,0.00
2013-8-21,78,67,57,59,55,51,90,65,49,30.06,29.89,10,1,15,0.00
2013-8-22,81,71,59,62,57,53,86,63,42,29.90,29.75,9,1,13,0.00
2013-8-23,73,67,62,60,58,55,89,73,59,29.85,29.77,18,6,21,0.00
2013-8-24,73,66,62,59,57,53,87,74,52,29.87,29.80,14,2,14,0.00
2013-8-25,71,64,57,61,56,54,90,76,58,29.90,29.82,9,1,12,0.02
2013-8-26,74,66,62,61,59,53,88,79,49,29.91,29.81,12,2,21,0.02
2013-8-27,77,68,63,62,60,56,89,75,57,29.91,29.75,12,1,14,0.01
2013-8-28,78,68,60,66,62,58,97,82,59,29.86,29.80,9,1,10,0.01
2013-8-29,72,68,65,67,64,61,96,90,78,29.97,29.82,11,2,16,0.22
2013-8-30,77,68,62,64,59,53,92,74,45,30.12,29.99,17,4,22,0.00
2013-8-31,79,67,58,62,59,56,94,76,53,30.06,29.81,7,0,13,0.00